When you browse on this site, cookies collect data to enhance your experience and personalize the content and advertising you see.
Visit our Privacy Policy to learn more. By continuing to use the site, you agree to this use of cookies and data.
  • In Romania
  • List of Countries
  • For 7 days
  • Water Temperature
  • Satellite Maps
  • Weather Map
  • Weather Widgets
  • user-avatar
    Login

    Hourly Weather Trzebiatów

    Today, 20 May, Monday

    Time Temperature Precipitation Wind Pressure Humidity
    00:00 +16°C° 0.1 mm 3 mps 754 mmHg 95%
    01:00 +16°C° 0 mm 2 mps 754 mmHg 94%
    02:00 +15°C° 0 mm 2 mps 754 mmHg 94%
    03:00 +15°C° 0 mm 2 mps 754 mmHg 94%
    04:00 +15°C° 0 mm 2 mps 754 mmHg 94%
    05:00 +16°C° 0 mm 2 mps 754 mmHg 91%
    06:00 +18°C° 0 mm 3 mps 754 mmHg 89%
    07:00 +19°C° 0 mm 3 mps 754 mmHg 87%
    08:00 +20°C° 0.1 mm 4 mps 753 mmHg 81%
    09:00 +21°C° 0.1 mm 4 mps 753 mmHg 76%
    10:00 +23°C° 0.1 mm 5 mps 753 mmHg 70%
    11:00 +23°C° 0.3 mm 5 mps 753 mmHg 69%
    12:00 +23°C° 0.3 mm 5 mps 753 mmHg 68%
    13:00 +25°C° 0.3 mm 5 mps 753 mmHg 67%
    14:00 +23°C° 0.2 mm 6 mps 752 mmHg 70%
    15:00 +22°C° 0.2 mm 6 mps 752 mmHg 73%
    16:00 +22°C° 0.2 mm 6 mps 752 mmHg 77%
    17:00 +21°C° 0.2 mm 6 mps 752 mmHg 80%
    18:00 +20°C° 0.2 mm 5 mps 751 mmHg 83%
    19:00 +19°C° 0.2 mm 5 mps 751 mmHg 86%
    20:00 +19°C° 0.3 mm 4 mps 751 mmHg 88%
    21:00 +18°C° 0.3 mm 4 mps 752 mmHg 90%
    22:00 +18°C° 0.3 mm 3 mps 752 mmHg 92%
    23:00 +17°C° 0 mm 2 mps 752 mmHg 92%

    Tomorrow, 21 May, Tuesday

    Time Temperature Precipitation Wind Pressure Humidity
    00:00 +16°C° 0 mm 2 mps 752 mmHg 91%
    01:00 +16°C° 0 mm 2 mps 752 mmHg 91%
    02:00 +16°C° 0 mm 2 mps 752 mmHg 90%
    03:00 +15°C° 0 mm 1 mps 752 mmHg 90%
    04:00 +15°C° 0 mm 1 mps 752 mmHg 90%
    05:00 +16°C° 0 mm 1 mps 752 mmHg 86%
    06:00 +19°C° 0 mm 1 mps 752 mmHg 83%
    07:00 +20°C° 0 mm 1 mps 752 mmHg 80%
    08:00 +21°C° 0 mm 1 mps 752 mmHg 76%
    09:00 +22°C° 0 mm 1 mps 752 mmHg 72%
    10:00 +23°C° 0 mm 1 mps 753 mmHg 69%
    11:00 +21°C° 0 mm 2 mps 753 mmHg 72%
    12:00 +21°C° 0 mm 3 mps 753 mmHg 75%
    13:00 +20°C° 0 mm 3 mps 753 mmHg 78%
    14:00 +20°C° 0 mm 3 mps 753 mmHg 78%
    15:00 +20°C° 0 mm 3 mps 752 mmHg 78%
    16:00 +21°C° 0 mm 2 mps 752 mmHg 78%
    17:00 +20°C° 0 mm 2 mps 752 mmHg 81%
    18:00 +19°C° 0 mm 2 mps 753 mmHg 85%
    19:00 +18°C° 0 mm 2 mps 753 mmHg 89%
    20:00 +17°C° 0 mm 2 mps 753 mmHg 91%
    21:00 +16°C° 0 mm 2 mps 753 mmHg 93%
    22:00 +14°C° 0 mm 3 mps 753 mmHg 96%
    23:00 +13°C° 0 mm 3 mps 753 mmHg 96%

    Day after tomorrow, 22 May, Wednesday

    Time Temperature Precipitation Wind Pressure Humidity
    00:00 +13°C° 0 mm 3 mps 753 mmHg 97%
    01:00 +13°C° 0 mm 3 mps 753 mmHg 98%
    02:00 +13°C° 0 mm 3 mps 753 mmHg 98%
    03:00 +13°C° 0 mm 3 mps 753 mmHg 98%
    04:00 +13°C° 0 mm 3 mps 753 mmHg 97%
    05:00 +13°C° 0 mm 4 mps 754 mmHg 96%
    06:00 +14°C° 0 mm 4 mps 754 mmHg 95%
    07:00 +14°C° 0 mm 5 mps 754 mmHg 93%
    08:00 +14°C° 0 mm 5 mps 754 mmHg 93%
    09:00 +15°C° 0 mm 5 mps 755 mmHg 92%
    10:00 +15°C° 0 mm 5 mps 755 mmHg 91%
    11:00 +14°C° 0.1 mm 6 mps 755 mmHg 92%
    12:00 +14°C° 0.1 mm 6 mps 755 mmHg 93%
    13:00 +13°C° 0.1 mm 6 mps 756 mmHg 94%
    14:00 +11°C° 0.2 mm 7 mps 756 mmHg 94%
    15:00 +11°C° 0.2 mm 7 mps 756 mmHg 95%
    16:00 +10°C° 0.2 mm 8 mps 756 mmHg 95%
    17:00 +10°C° 0.4 mm 8 mps 756 mmHg 95%
    18:00 +10°C° 0.4 mm 9 mps 757 mmHg 95%
    19:00 +10°C° 0.4 mm 9 mps 757 mmHg 94%
    20:00 +10°C° 0.4 mm 9 mps 758 mmHg 94%
    21:00 +10°C° 0.4 mm 9 mps 758 mmHg 93%
    22:00 +10°C° 0.4 mm 8 mps 759 mmHg 92%
    23:00 +10°C° 0.2 mm 8 mps 759 mmHg 91%

    23 May, Thursday

    Time Temperature Precipitation Wind Pressure Humidity
    00:00 +9°C° 0.2 mm 8 mps 759 mmHg 90%
    01:00 +9°C° 0.2 mm 8 mps 760 mmHg 89%
    02:00 +8°C° 0 mm 7 mps 760 mmHg 89%
    03:00 +8°C° 0 mm 7 mps 760 mmHg 89%
    04:00 +6°C° 0 mm 7 mps 761 mmHg 90%
    05:00 +8°C° 0 mm 7 mps 761 mmHg 86%
    06:00 +9°C° 0 mm 7 mps 761 mmHg 83%
    07:00 +9°C° 0 mm 7 mps 762 mmHg 79%
    08:00 +10°C° 0 mm 7 mps 762 mmHg 76%
    09:00 +11°C° 0 mm 7 mps 762 mmHg 72%
    10:00 +11°C° 0 mm 7 mps 762 mmHg 68%
    11:00 +12°C° 0 mm 7 mps 762 mmHg 66%
    12:00 +12°C° 0 mm 7 mps 762 mmHg 64%
    13:00 +14°C° 0 mm 7 mps 762 mmHg 63%
    14:00 +14°C° 0 mm 6 mps 762 mmHg 62%
    15:00 +13°C° 0 mm 6 mps 762 mmHg 62%
    16:00 +13°C° 0 mm 6 mps 762 mmHg 61%
    17:00 +13°C° 0 mm 5 mps 762 mmHg 66%
    18:00 +12°C° 0 mm 4 mps 762 mmHg 70%
    19:00 +11°C° 0 mm 3 mps 761 mmHg 75%
    20:00 +10°C° 0 mm 3 mps 761 mmHg 75%
    21:00 +9°C° 0 mm 3 mps 761 mmHg 75%
    22:00 +8°C° 0 mm 3 mps 761 mmHg 75%
    23:00 +8°C° 0 mm 3 mps 761 mmHg 74%

    24 May, Friday

    Time Temperature Precipitation Wind Pressure Humidity
    00:00 +8°C° 0 mm 3 mps 761 mmHg 73%
    01:00 +8°C° 0 mm 3 mps 761 mmHg 72%
    02:00 +8°C° 0 mm 3 mps 761 mmHg 73%
    03:00 +8°C° 0 mm 3 mps 760 mmHg 74%
    04:00 +8°C° 0 mm 3 mps 760 mmHg 75%
    05:00 +9°C° 0 mm 3 mps 760 mmHg 74%
    06:00 +11°C° 0 mm 3 mps 760 mmHg 73%
    07:00 +12°C° 0 mm 3 mps 759 mmHg 72%
    08:00 +14°C° 0 mm 3 mps 759 mmHg 69%
    09:00 +17°C° 0 mm 3 mps 759 mmHg 67%
    10:00 +18°C° 0 mm 3 mps 758 mmHg 64%
    11:00 +19°C° 0.2 mm 3 mps 758 mmHg 65%
    12:00 +19°C° 0.2 mm 3 mps 757 mmHg 66%
    13:00 +20°C° 0.2 mm 3 mps 756 mmHg 67%
    14:00 +19°C° 0.2 mm 3 mps 756 mmHg 68%
    15:00 +19°C° 0.2 mm 3 mps 755 mmHg 70%
    16:00 +19°C° 0.2 mm 3 mps 755 mmHg 72%
    17:00 +19°C° 0 mm 3 mps 755 mmHg 75%
    18:00 +18°C° 0 mm 3 mps 754 mmHg 78%
    19:00 +17°C° 0 mm 3 mps 754 mmHg 80%
    20:00 +17°C° 0 mm 3 mps 754 mmHg 81%
    21:00 +15°C° 0 mm 4 mps 754 mmHg 82%
    22:00 +14°C° 0 mm 4 mps 754 mmHg 83%
    23:00 +14°C° 0 mm 5 mps 753 mmHg 84%

    25 May, Saturday

    Time Temperature Precipitation Wind Pressure Humidity
    00:00 +13°C° 0 mm 5 mps 753 mmHg 85%
    01:00 +13°C° 0 mm 5 mps 753 mmHg 86%
    02:00 +12°C° 0 mm 5 mps 753 mmHg 85%
    03:00 +12°C° 0 mm 5 mps 753 mmHg 85%
    04:00 +12°C° 0 mm 5 mps 753 mmHg 84%
    05:00 +12°C° 1.1 mm 5 mps 753 mmHg 88%
    06:00 +12°C° 1.1 mm 4 mps 753 mmHg 92%
    07:00 +12°C° 1.1 mm 4 mps 753 mmHg 95%
    08:00 +12°C° 1.3 mm 3 mps 753 mmHg 94%
    09:00 +12°C° 1.3 mm 3 mps 754 mmHg 92%
    10:00 +14°C° 1.3 mm 2 mps 754 mmHg 91%
    11:00 +15°C° 0.2 mm 2 mps 754 mmHg 86%
    12:00 +16°C° 0.2 mm 1 mps 754 mmHg 81%
    13:00 +18°C° 0.2 mm 1 mps 754 mmHg 77%
    14:00 +18°C° 0.3 mm 1 mps 754 mmHg 76%
    15:00 +18°C° 0.3 mm 1 mps 754 mmHg 76%
    16:00 +18°C° 0.3 mm 1 mps 754 mmHg 75%
    17:00 +18°C° 0.3 mm 1 mps 754 mmHg 79%
    18:00 +16°C° 0.3 mm 2 mps 754 mmHg 83%
    19:00 +16°C° 0.3 mm 2 mps 754 mmHg 87%
    20:00 +15°C° 0.1 mm 2 mps 754 mmHg 88%
    21:00 +14°C° 0.1 mm 2 mps 754 mmHg 89%
    22:00 +12°C° 0.1 mm 3 mps 754 mmHg 91%
    23:00 +12°C° 0.1 mm 3 mps 754 mmHg 92%
    Show more